Location: G�ppingen
(48.7000°N, 9.6670°E)
Time: 22:55:57
(UTC+02:00)

Envisat - Visible Passes

Search period start: 15 October 2018 00:00
Search period end: 25 October 2018 00:00
Orbit: 764 x 766 km, 98.2° (Epoch: 15 October)

Date Brightness Start Highest point End Pass type
(mag) Time Alt. Az. Time Alt. Az. Time Alt. Az.
15 Oct 2.9 20:02:41 10° SSE 20:07:45 79° ENE 20:12:51 10° NNW visible
15 Oct 5.7 21:44:23 10° SW 21:47:24 16° W 21:50:25 10° NW visible
16 Oct 3.4 19:26:27 10° SE 19:31:09 40° ENE 19:35:53 10° N visible
16 Oct 4.7 21:05:46 10° SSW 21:10:15 31° W 21:14:47 10° NNW visible
17 Oct 3.4 20:28:17 10° S 20:33:19 64° WSW 20:38:24 10° NNW visible
18 Oct 2.9 19:51:34 10° SSE 19:56:36 64° ENE 20:01:38 10° N visible
18 Oct 5.4 21:32:28 10° SW 21:36:04 19° W 21:39:42 10° NW visible
19 Oct 3.7 19:15:33 10° SE 19:20:03 33° ENE 19:24:34 10° N visible
19 Oct 4.3 20:54:16 10° SSW 20:59:00 38° W 21:03:45 10° NNW visible
20 Oct 3.1 20:17:03 10° S 20:22:08 79° WSW 20:27:15 10° NNW visible
20 Oct 5.9 22:00:24 10° WSW 22:02:00 11° W 22:03:36 10° WNW visible
21 Oct 3.1 19:40:32 10° SE 19:45:27 52° ENE 19:50:23 10° N visible
21 Oct 5.1 21:20:44 10° SW 21:24:46 24° W 21:28:51 10° NW visible
22 Oct 3.9 19:04:43 10° ESE 19:08:57 27° ENE 19:13:12 10° N visible
22 Oct 3.9 20:42:52 10° S 20:47:45 47° W 20:52:41 10° NNW visible
23 Oct 2.9 20:05:52 10° SSE 20:10:56 85° ENE 20:16:03 10° NNW visible
23 Oct 5.8 21:47:56 10° WSW 21:50:39 14° W 21:53:22 10° NW visible
24 Oct 3.3 19:29:32 10° SE 19:34:18 43° ENE 19:39:07 10° N visible
24 Oct 4.8 21:09:06 10° SSW 21:13:29 29° W 21:17:54 10° NW visible
